Location: Capvern
(43.1036°N, 0.3160°E)
Time: 05:09:11
(UTC+00:00)

Iridium 4 Rocket - Pass Details

Date: 16 October 2021
Orbit: 586 x 903 km, 86.9° (Epoch: 02 December)

Event Time Altitude Azimuth Distance (km) Brightness Sun altitude
Rises 19:26:19 0° 350° (N) 2,886 6.8 -24.8°
Reaches altitude 10° 19:28:33 10° 343° (NNW) 2,007 6.0 -25.2°
Maximum altitude 19:32:40 40° 273° (W) 962 4.4 -26.0°
Drops below altitude 10° 19:37:05 10° 204° (SSW) 2,149 5.9 -26.7°
Sets 19:39:34 0° 198° (SSW) 3,117 6.7 -27.2°
